Weather History for KCWI - February, 2013

Change the Weather History Date:

Sunday, February 3, 2013

  Actual Average Record
Temperature  
Mean Temperature 18 °F -  
Max Temperature 23 °F 30 °F 55 °F (1992)
Min Temperature 14 °F 12 °F -17 °F (1963)
Degree Days  
Heating Degree Days 46    
Moisture  
Dew Point 12 °F    
Average Humidity 75    
Maximum Humidity 86    
Minimum Humidity 63    
Precipitation  
Precipitation 0.00 in - - ()
Sea Level Pressure  
Sea Level Pressure 30.04 in    
Wind  
Wind Speed 10 mph (West)    
Max Wind Speed 23 mph    
Max Gust Speed 29 mph    
Visibility 9 miles    
Events      
Averages and records for this station are not official NWS values.
T = Trace of Precipitation, MM = Missing Value Source: NWS Daily Summary

Daily Weather History Graph

Daily Weather History Graph

Search for Another Location

Airport or City:

Trip Planner

Search our weather history database for the weather conditions in past years. The results will help you decide how hot, cold, wet, or windy it might be!

Date:

Astronomy

Feb. 03, 2013 Rise Set
Actual Time 7:11 AM CST 5:19 PM CST
Civil Twilight 6:42 AM CST 5:48 PM CST
Nautical Twilight 6:08 AM CST 6:22 PM CST
Astronomical Twilight 5:36 AM CST 6:54 PM CST
Moon 12:39 AM CST (2/3) 10:56 AM CST (2/3)
Length of Visible Light 11h 06m
Length of Day
10h 08m
Waning Gibbous, 48% of the Moon is Illuminated
Feb 3
Waning Gibbous
Feb 10
New
Feb 17
First Quarter
Feb 25
Full
Mar 4
Last Quarter

Hourly Weather History & Observations

Time (CST) Temp. Windchill Dew Point Humidity Pressure Visibility Wind Dir Wind Speed Gust Speed Precip Events Conditions
12:15 AM 14.0 °F 8.2 °F 8.6 °F 79% 30.03 in 2.5 mi South 3.5 mph - N/A   Overcast
12:35 AM 14.0 °F 8.2 °F 10.4 °F 86% 30.02 in 10.0 mi South 3.5 mph - N/A   Overcast
12:55 AM 15.8 °F 10.2 °F 10.4 °F 79% 30.01 in 10.0 mi South 3.5 mph - N/A   Overcast
1:15 AM 15.8 °F 8.6 °F 10.4 °F 79% 30.00 in 8.0 mi South 4.6 mph - N/A   Overcast
1:35 AM 15.8 °F 10.2 °F 10.4 °F 79% 30.00 in 10.0 mi South 3.5 mph - N/A   Overcast
1:55 AM 15.8 °F 8.6 °F 10.4 °F 79% 29.99 in 10.0 mi SSE 4.6 mph - N/A   Overcast
2:15 AM 15.8 °F 10.2 °F 10.4 °F 79% 30.00 in 10.0 mi South 3.5 mph - N/A   Overcast
2:35 AM 15.8 °F 7.2 °F 10.4 °F 79% 29.99 in 10.0 mi SSE 5.8 mph - N/A   Overcast
2:55 AM 15.8 °F 7.2 °F 10.4 °F 79% 29.97 in 10.0 mi SSE 5.8 mph - N/A   Overcast
3:15 AM 15.8 °F 7.2 °F 10.4 °F 79% 29.97 in 9.0 mi South 5.8 mph - N/A   Overcast
3:55 AM 15.8 °F 7.2 °F 12.2 °F 86% 29.97 in 1.8 mi SSW 5.8 mph - N/A   Overcast
4:15 AM 15.8 °F 7.2 °F 12.2 °F 86% 29.98 in 2.0 mi SW 5.8 mph - N/A   Overcast
4:35 AM 15.8 °F 7.2 °F 12.2 °F 86% 29.98 in 2.0 mi WSW 5.8 mph - N/A   Overcast
4:55 AM 17.6 °F 7.3 °F 14.0 °F 86% 29.99 in 2.5 mi West 8.1 mph - N/A   Mostly Cloudy
5:15 AM 17.6 °F 7.3 °F 14.0 °F 86% 29.99 in 5.0 mi West 8.1 mph - N/A   Mostly Cloudy
5:35 AM 17.6 °F 6.4 °F 14.0 °F 86% 29.99 in 5.0 mi West 9.2 mph - N/A   Mostly Cloudy
5:55 AM 17.6 °F 5.0 °F 14.0 °F 86% 29.99 in 5.0 mi WNW 11.5 mph - N/A   Overcast
6:15 AM 19.4 °F 4.5 °F 15.8 °F 86% 29.99 in 8.0 mi NW 17.3 mph - N/A   Overcast
6:35 AM 19.4 °F 4.1 °F 14.0 °F 80% 30.00 in 10.0 mi NW 18.4 mph 24.2 mph N/A   Overcast
6:55 AM 19.4 °F 4.1 °F 14.0 °F 80% 30.01 in 10.0 mi NW 18.4 mph - N/A   Overcast
7:15 AM 19.4 °F 4.5 °F 14.0 °F 80% 30.02 in 10.0 mi NW 17.3 mph - N/A   Overcast
7:35 AM 19.4 °F 5.0 °F 14.0 °F 80% 30.03 in 8.0 mi NW 16.1 mph - N/A   Overcast
7:55 AM 19.4 °F 4.5 °F 12.2 °F 74% 30.04 in 10.0 mi NW 17.3 mph - N/A   Overcast
8:15 AM 19.4 °F 4.5 °F 12.2 °F 74% 30.05 in 10.0 mi WNW 17.3 mph - N/A   Overcast
8:35 AM 17.6 °F 0.5 °F 10.4 °F 73% 30.06 in 8.0 mi NW 21.9 mph - N/A   Overcast
8:55 AM 17.6 °F 0.1 °F 8.6 °F 68% 30.07 in 10.0 mi NW 23.0 mph 27.6 mph N/A   Scattered Clouds
9:15 AM 17.6 °F 1.3 °F 8.6 °F 68% 30.07 in 10.0 mi NW 19.6 mph - N/A   Scattered Clouds
9:35 AM 17.6 °F 1.3 °F 8.6 °F 68% 30.08 in 10.0 mi NW 19.6 mph - N/A   Partly Cloudy
9:55 AM 17.6 °F 1.3 °F 8.6 °F 68% 30.08 in 10.0 mi NW 19.6 mph - N/A   Clear
10:15 AM 17.6 °F 1.7 °F 8.6 °F 68% 30.08 in 10.0 mi NW 18.4 mph - N/A   Clear
10:35 AM 17.6 °F 1.3 °F 8.6 °F 68% 30.10 in 10.0 mi WNW 19.6 mph - N/A   Clear
10:55 AM 17.6 °F 1.3 °F 8.6 °F 68% 30.10 in 10.0 mi WNW 19.6 mph - N/A   Clear
11:15 AM 17.6 °F 0.5 °F 8.6 °F 68% 30.10 in 10.0 mi WNW 21.9 mph - N/A   Clear
11:35 AM 17.6 °F 1.7 °F 8.6 °F 68% 30.11 in 10.0 mi West 18.4 mph - N/A   Clear
11:55 AM 17.6 °F 0.9 °F 8.6 °F 68% 30.11 in 10.0 mi WNW 20.7 mph - N/A   Clear
12:15 PM 17.6 °F 0.1 °F 10.4 °F 73% 30.11 in 10.0 mi WNW 23.0 mph 27.6 mph N/A   Clear
12:35 PM 19.4 °F 3.6 °F 10.4 °F 68% 30.10 in 10.0 mi WNW 19.6 mph 28.8 mph N/A   Clear
12:55 PM 19.4 °F 4.5 °F 10.4 °F 68% 30.09 in 10.0 mi West 17.3 mph - N/A   Clear
1:15 PM 19.4 °F 3.6 °F 10.4 °F 68% 30.10 in 10.0 mi West 19.6 mph - N/A   Scattered Clouds
1:35 PM 19.4 °F 3.2 °F 10.4 °F 68% 30.10 in 10.0 mi WNW 20.7 mph - N/A   Partly Cloudy
1:55 PM 21.2 °F 6.8 °F 12.2 °F 68% 30.09 in 10.0 mi WNW 17.3 mph - N/A   Partly Cloudy
2:15 PM 21.2 °F 6.0 °F 12.2 °F 68% 30.09 in 10.0 mi West 19.6 mph - N/A   Mostly Cloudy
2:35 PM 21.2 °F 6.8 °F 10.4 °F 63% 30.08 in 10.0 mi West 17.3 mph - N/A   Mostly Cloudy
2:55 PM 21.2 °F 6.8 °F 12.2 °F 68% 30.08 in 10.0 mi West 17.3 mph - N/A   Mostly Cloudy
3:15 PM 21.2 °F 8.3 °F 12.2 °F 68% 30.08 in 10.0 mi West 13.8 mph - N/A   Mostly Cloudy
3:35 PM 21.2 °F 8.3 °F 12.2 °F 68% 30.08 in 10.0 mi WNW 13.8 mph - N/A   Mostly Cloudy
3:55 PM 21.2 °F 8.9 °F 12.2 °F 68% 30.07 in 10.0 mi West 12.7 mph - N/A   Overcast
4:15 PM 21.2 °F 8.9 °F 12.2 °F 68% 30.07 in 10.0 mi West 12.7 mph - N/A   Overcast
4:35 PM 21.2 °F 9.5 °F 12.2 °F 68% 30.06 in 10.0 mi West 11.5 mph - N/A   Overcast
4:55 PM 21.2 °F 10.9 °F 12.2 °F 68% 30.06 in 10.0 mi West 9.2 mph - N/A   Overcast
5:15 PM 21.2 °F 9.5 °F 12.2 °F 68% 30.05 in 10.0 mi WNW 11.5 mph - N/A   Overcast
5:35 PM 21.2 °F 11.7 °F 12.2 °F 68% 30.05 in 10.0 mi West 8.1 mph - N/A   Overcast
5:55 PM 21.2 °F 13.6 °F 12.2 °F 68% 30.05 in 10.0 mi West 5.8 mph - N/A   Overcast
6:15 PM 21.2 °F 13.6 °F 14.0 °F 74% 30.06 in 10.0 mi WSW 5.8 mph - N/A   Mostly Cloudy
6:35 PM 21.2 °F 11.7 °F 14.0 °F 74% 30.06 in 10.0 mi WSW 8.1 mph - N/A   Scattered Clouds
6:55 PM 21.2 °F 10.9 °F 14.0 °F 74% 30.06 in 10.0 mi WSW 9.2 mph - N/A   Partly Cloudy
7:15 PM 21.2 °F 12.6 °F 14.0 °F 74% 30.05 in 10.0 mi WSW 6.9 mph - N/A   Scattered Clouds
7:35 PM 21.2 °F 13.6 °F 14.0 °F 74% 30.05 in 10.0 mi WSW 5.8 mph - N/A   Mostly Cloudy
7:55 PM 19.4 °F 14.3 °F 14.0 °F 80% 30.06 in 10.0 mi WSW 3.5 mph - N/A   Scattered Clouds
8:15 PM 19.4 °F 12.8 °F 14.0 °F 80% 30.06 in 10.0 mi WSW 4.6 mph - N/A   Scattered Clouds
8:35 PM 21.2 °F - 14.0 °F 74% 30.06 in 10.0 mi Calm Calm - N/A   Mostly Cloudy
8:55 PM 21.2 °F - 15.8 °F 80% 30.06 in 10.0 mi Calm Calm - N/A   Mostly Cloudy
9:15 PM 21.2 °F 16.4 °F 14.0 °F 74% 30.05 in 10.0 mi SE 3.5 mph - N/A   Mostly Cloudy
9:35 PM 21.2 °F 14.9 °F 14.0 °F 74% 30.04 in 10.0 mi SE 4.6 mph - N/A   Mostly Cloudy
9:55 PM 21.2 °F 13.6 °F 15.8 °F 80% 30.03 in 10.0 mi ESE 5.8 mph - N/A   Scattered Clouds
10:15 PM 21.2 °F 13.6 °F 15.8 °F 80% 30.02 in 10.0 mi ESE 5.8 mph - N/A   Mostly Cloudy
10:35 PM 21.2 °F 13.6 °F 15.8 °F 80% 30.02 in 10.0 mi East 5.8 mph - N/A   Overcast
10:55 PM 21.2 °F 10.9 °F 15.8 °F 80% 30.00 in 10.0 mi East 9.2 mph - N/A   Overcast
11:15 PM 23.0 °F 13.1 °F 15.8 °F 74% 29.99 in 10.0 mi ESE 9.2 mph - N/A   Overcast
11:35 PM 23.0 °F 12.4 °F 15.8 °F 74% 29.97 in 10.0 mi ESE 10.4 mph - N/A   Scattered Clouds
11:55 PM 23.0 °F 12.4 °F 15.8 °F 74% 29.96 in 10.0 mi ESE 10.4 mph - N/A   Clear